Back to catalog

STARLINK-31796

AliveCommunicationsVLEO
NORAD 59646·PAYLOAD·🇺🇸 United States

Launched May 3, 2024 from Cape Canaveral Space Force Station

Loading…

Next Passes (next 24 hours)

TLE

FreshSource: CelesTrak SupGP

Epoch: Sep 14, 2026, 21:12 UTC

1 59646C 24082R   26257.88381944 -.00047498  00000+0 -17204-2 0  2579
2 59646  42.9993 151.2924 0001333 264.0054 225.7414 15.27601452    12

Track STARLINK-31796 in real time with AllMySat

Download on the App Store